TIME,DELAY(SENSOR),PRES,OXYGEN,RAWTEMP,T(OPTODE),TCPHASE,FLUOR,BETA(BETA700),BETA(BETA412),BETA(BETA440),CDOM,C(CSC),ED(ED412.40),ED(ED444.00),ED(ED489.70),ED(ED554.30),LU(LU411.80),LU(LU443.40),LU(LU489.60),LU(LU554.10),COMP,TILTX,TILTY,CHECK
1336706916,5811,888.3200073242188000,42.5743713378906250,661.7467041015625000,4.5704522132873535,54.6326217651367200,53,102,91,79,81,15288,2147758756,2147421586,2148006116,2147876425,2147640594,2147061641,2148261394,2147200722,334,4,13,56909
1336710512,5807,971.2299804687500000,46.7797203063964840,671.2993774414062000,4.2552638053894040,54.1391906738281250,52,103,86,79,84,15276,2147758921,2147420342,2148006948,2147873892,2147643593,2147063579,2148257846,2147204288,3181,4,13,2372
1336714112,5809,986.8900146484375000,47.2025489807128900,671.4932250976562000,4.2488589286804200,54.0816497802734400,54,101,90,79,83,15280,2147760557,2147420626,2148008539,2147873316,2147642450,2147064256,2148263067,2147202386,158,4,13,49317
1336717712,5808,991.4000244140625000,47.1114311218261700,672.7728271484375000,4.2065582275390625,54.1054687500000000,52,99,87,81,83,15278,2147758381,2147423753,2148006454,2147874185,2147645010,2147063186,2148265673,2147200457,26,5,13,20359
1336721312,5809,993.4500122070312000,46.9516792297363300,673.1201171875000000,4.1950740814208980,54.1342811584472660,53,101,90,81,83,15279,2147759597,2147420726,2148007780,2147869403,2147644004,2147060608,2148259675,2147200795,117,4,13,54835
1336724912,5812,990.4600219726562000,47.1958618164062500,673.8712158203125000,4.1702308654785160,54.1084289550781250,53,102,92,79,84,15280,2147761243,2147423040,2148004589,2147872685,2147643190,2147059483,2148260059,2147201252,1132,4,13,9273
1336728512,5809,1001.2600097656250000,47.2518196105957000,673.6832885742188000,4.1764450073242190,54.0978393554687500,52,102,87,79,84,15276,2147757915,2147421604,2148007049,2147872905,2147646418,2147055734,2148262619,2147198445,7,4,13,45924
1336732112,5811,997.1900024414062000,47.4452018737793000,674.0825195312500000,4.1632418632507320,54.0742111206054700,53,100,88,79,84,15280,2147760868,2147420041,2148008274,2147872612,2147642496,2147053110,2148260763,2147200658,133,4,13,42239
1336735712,5809,1000.2999877929688000,47.2936897277832000,673.9965209960938000,4.1660881042480470,54.0998001098632800,53,101,89,79,84,15280,2147759881,2147421522,2148008411,2147879122,2147643017,2147059803,2148267062,2147201993,588,4,13,821
1336739312,5808,1003.0300292968750000,47.4659309387207000,674.2913208007812000,4.1563358306884770,54.0800590515136700,52,113,88,79,83,15280,2147762029,2147422473,2148005504,2147872292,2147641380,2147057618,2148257929,2147201216,102,4,13,40547
1336742912,5808,998.9000244140625000,47.8130302429199200,674.5814208984375000,4.1467380523681640,54.0327606201171900,53,103,91,79,83,15277,2147759533,2147421019,2148007250,2147872603,2147643236,2147057956,2148266477,2147197248,3583,4,13,10763
1336746512,5810,1005.0999755859375000,47.6433601379394500,674.5228271484375000,4.1486740112304690,54.0567893981933600,53,98,86,80,83,15276,2147760978,2147422171,2148009188,2147874706,2147640713,2147059410,2148258221,2147202294,595,4,13,64907
1336750112,5810,1011.2500000000000000,46.6554298400878900,673.1425781250000000,4.1943278312683105,54.1778793334960940,53,101,89,81,84,15275,2147758052,2147419648,2148008758,2147875922,2147640868,2147061284,2148260617,2147203136,90,5,13,46022
1336753712,5812,1014.8900146484375000,46.4317588806152340,672.9387207031250000,4.2010731697082520,54.2072906494140600,53,101,89,78,84,15272,2147756361,2147419364,2148005302,2147875245,2147644114,2147059712,2148263131,2147205549,346,4,13,11283
1336757312,5808,1016.5100097656250000,46.1647300720214840,672.3621215820312000,4.2201371192932130,54.2360000610351560,52,100,88,79,83,15273,2147760438,2147422948,2148007661,2147876644,2147642989,2147065417,2148262619,2147199908,142,4,13,50497
1336760912,5812,1020.6699829101562000,45.7614097595214840,671.9025878906250000,4.2353267669677730,54.2870292663574200,53,100,90,79,84,15271,2147758537,2147423533,2148005421,2147871542,2147643419,2147062674,2148265938,2147205174,80,4,13,9013
1336764512,5809,1013.4299926757812000,46.1852111816406250,673.2302856445312000,4.1914310455322270,54.2458915710449200,53,105,87,80,83,15271,2147759268,2147424036,2148007168,2147875602,2147643510,2147065088,2148264100,2147202404,69,5,13,28574
1336768112,5807,1017.1400146484375000,46.0454902648925800,673.4367065429688000,4.1846032142639160,54.2653617858886700,52,104,87,80,83,15273,2147759414,2147420041,2148006034,2147873563,2147641883,2147060745,2148267209,2147203529,303,4,13,31587
1336771712,5810,1014.4899902343750000,46.2313117980957000,673.0358276367188000,4.1978611946105960,54.2377586364746100,53,101,88,80,83,15271,2147760301,2147425051,2148006409,2147878107,2147641353,2147061421,2148262482,2147202020,53,5,13,49764
1336775312,5810,1017.0399780273438000,46.8749885559082000,673.7114257812500000,4.1755199432373050,54.1567916870117200,53,99,91,80,84,15271,2147762395,2147422482,2148005924,2147871725,2147643364,2147060909,2148267437,2147202276,3583,4,13,48604
1336778912,5810,1015.4199829101562000,46.0946502685546900,673.5275268554688000,4.1816010475158690,54.2611808776855500,53,100,91,81,83,15274,2147763190,2147422857,2148009426,2147872429,2147646994,2147058221,2148263460,2147204699,424,4,13,7908
1336782512,5808,1015.6500244140625000,45.7669296264648440,673.3400268554688000,4.1877989768981930,54.3067817687988300,53,98,87,80,83,15273,2147760228,2147422409,2148004836,2147874486,2147646180,2147063570,2148259492,2147203986,336,4,13,60242
1336786112,5808,1014.9299926757812000,47.6104888916015600,674.4099731445312000,4.1524071693420410,54.0602111816406250,53,101,88,80,83,15271,2147760740,2147422573,2148005540,2147874029,2147641526,2147061120,2148267282,2147202468,389,4,13,44650
1336789712,5808,1017.9000244140625000,47.5860710144043000,674.3859252929688000,4.1532058715820310,54.0604896545410160,54,100,88,80,83,15272,2147759515,2147421056,2148007542,2147877440,2147640813,2147061357,2148265362,2147200960,565,4,14,5707
1336793312,5807,1017.1699829101562000,47.3124008178710940,674.0460815429688000,4.1644477844238280,54.0928802490234400,53,99,90,79,84,15270,2147760978,2147421339,2148007296,2147875437,2147643254,2147065225,2148263616,2147201636,295,4,13,42015
1336796912,5808,1015.9799804687500000,47.5887794494628900,674.2905883789062000,4.1563568115234375,54.0607299804687500,53,100,88,79,83,15269,2147761051,2147421293,2148007506,2147877339,2147644434,2147063241,2148260836,2147202496,458,4,13,30677
1336800512,5808,1008.5800170898438000,46.7360496520996100,674.3261718750000000,4.1551799774169920,54.1780509948730500,53,100,91,79,83,15270,2147759899,2147422966,2148008868,2147876169,2147644288,2147065280,2148261778,2147199881,554,4,13,7308
1336804112,5807,1014.0399780273438000,46.5692405700683600,674.8864746093750000,4.1366410255432130,54.2122688293457000,52,104,93,80,84,15266,2147759460,2147419958,2148007506,2147871570,2147645476,2147063213,2148260032,2147201124,200,4,13,41110
1336807712,5806,1012.8800048828125000,47.3203392028808600,674.9603881835938000,4.1341972351074220,54.1033706665039060,53,98,89,79,84,15267,2147759360,2147422582,2148007314,2147876233,2147645430,2147060288,2148261979,2147201636,3475,4,13,36586
1336811312,5807,1018.7500000000000000,47.6801300048828100,674.5034790039062000,4.1493129730224610,54.0521812438964840,54,100,89,80,84,15268,2147760612,2147420754,2148004781,2147875785,2147645705,2147062601,2148265133,2147204022,455,4,13,37520
1336814912,5812,1015.0900268554688000,47.4277381896972660,674.7330932617188000,4.1417179107666020,54.0862693786621100,53,99,89,81,84,15262,2147759734,2147422482,2148006107,2147873472,2147645129,2147059794,2148264859,2147203209,219,5,13,59953
1336818512,5808,1003.7600097656250000,48.0340881347656250,677.0778808593750000,4.0640997886657715,54.0321998596191400,53,103,87,79,83,15266,2147760557,2147424594,2148004580,2147874294,2147645019,2147055314,2148264356,2147202066,183,4,13,42828
1336822112,5807,1009.0100097656250000,48.4029197692871100,676.1022949218750000,4.0964031219482420,53.9697189331054700,53,101,91,79,83,15267,2147759140,2147421942,2148006390,2147871881,2147646912,2147064621,2148264685,2147201408,323,4,13,18819
1336825712,5810,1017.3300170898438000,47.2645988464355500,675.0452880859375000,4.1313881874084470,54.1155281066894500,53,99,90,78,83,15265,2147761152,2147421522,2148006528,2147876571,2147644882,2147060553,2148261961,2147203337,3437,4,13,52174
1336829312,5809,1013.4299926757812000,46.5373001098632800,674.8352050781250000,4.1383399963378910,54.2155189514160160,53,99,90,79,83,15264,2147760054,2147423890,2148006445,2147873481,2147643163,2147061650,2148262966,2147202715,605,4,13,27500
1336832912,5811,1016.2999877929688000,46.9468994140625000,675.3518066406250000,4.1212439537048340,54.1656112670898440,53,99,89,78,84,15262,2147757449,2147420708,2148004626,2147873691,2147644772,2147070052,2148266633,2147201453,3442,4,13,46397
1336836512,5805,1020.7600097656250000,46.5713500976562500,674.8068237304688000,4.1392798423767090,54.2121582031250000,52,104,90,79,83,15260,2147760768,2147421961,2148006208,2147871451,2147640493,2147060178,2148265234,2147202285,123,4,13,38408
1336840112,5809,1025.5000000000000000,46.8273811340332000,674.0899047851562000,4.1629981994628910,54.1634788513183600,52,100,86,79,83,15257,2147760630,2147419766,2148007460,2147872347,2147641307,2147063936,2148265993,2147201792,77,5,13,42626
1336843712,5811,1023.6400146484375000,46.6719093322753900,674.2752075195312000,4.1568679809570310,54.1909408569335940,52,101,91,79,84,15259,2147759405,2147419300,2148006738,2147875803,2147644169,2147063213,2148264749,2147201334,493,4,13,56824
1336847312,5808,1030.5899658203125000,46.3779602050781250,673.6690063476562000,4.1769199371337890,54.2232093811035160,53,102,89,79,84,15253,2147760393,2147421065,2148006354,2147872356,2147643392,2147065984,2148262326,2147199798,148,4,13,2104
1336850912,5806,1030.5200195312500000,46.2842903137207000,673.0947265625000000,4.1959152221679690,54.2283897399902340,53,99,90,80,83,15255,2147759424,2147420891,2148008009,2147874139,2147643986,2147060059,2148258157,2147202057,3531,4,14,29390
1336851656,5809,1025.6899414062500000,46.2392311096191400,672.7702026367188000,4.2066440582275390,54.2336082458496100,53,107,86,80,84,15272,2147757833,2147421110,2148007113,2147873755,2147645302,2147064027,2148268672,2147202203,3212,4,13,10499
